Location: Sungai Bunut
(2.6333°N, 113.7333°E)
Time: 19:17:54
(UTC+00:00)

Milstar 3 - Pass Details

Date: 16 October 2021
Orbit: 1106 x 5139 km, 28.3° (Epoch: 06 December)

Event Time Altitude Azimuth Distance (km) Brightness Sun altitude
Rises 21:32:36 0° 241° (WSW) 5,607 6.0 -9.8°
Reaches altitude 10° 21:36:48 10° 241° (WSW) 4,114 5.3 -8.7°
Maximum altitude 21:46:19 87° 330° (NNW) 1,251 3.1 -6.4°
Drops below altitude 10° 21:53:00 10° 59° (ENE) 2,955 5.9 -4.7°
Sets 21:55:31 0° 59° (ENE) 3,926 6.6 -4.1°
